Forside
METAR-TAF:

METAR-TAF

Lufthavne :

Waseca Municipal Airport

Waseca, Minnesota, USA

Breddekreds: 44-04-24N, længdekreds: 093-33-11W, højde: 343 m

Aktuelle vejr

Denne rapport blev lavet for 26 minutter siden, kl. 00:35 UTC
Vind 9 kt fra nordvest med vindstød på up til 17 kt
Temperatur 17°C
Fugtighed 39%
Tryk 1015 hPa
Sigt: 16.1 km
Spredte skyer i en højde af 7000 ft

METAR: KACQ 220035Z AUTO 32009G17KT 10SM SCT070 17/03 A2997 RMK AO2

Tid: 20:01 (01:01 UTC)


TAF: fraværende

Vejrobservationer og prognoser fra mere end 4000 lufthavne (METAR og TAF).

De gule og røde prikker repræsenterer de meteorologiske stationer.

Flyt musen over at se navnet på stationen.

Så klik over at se vejr observationer og prognoser.

At skifte det kort: Klik på de grønne knapper med et sort kors for at zoome ind; på den grønne knap med en bindestreg for at zoome ud; eller på de grønne pile for tilstødende kort.


METAR-TAF: